This is the latest recevied weather packets stored in our database for station/object SA3PJN-WX. If no packets are shown the sender has not sent any weather packets the latest 10 day(s).
| Time | Temp. | Humidity | Pressure | Rain* | Wind** | Luminosity | Snow |
|---|---|---|---|---|---|---|---|
| 1777721014 | 10° C | 68% | 964.8 hPa | - | - | - | - |
| 1777720714 | 10° C | 67% | 964.6 hPa | - | - | - | - |
| 1777720414 | 10.56° C | 67% | 964.5 hPa | - | - | - | - |
| 1777720114 | 10° C | 67% | 964.6 hPa | - | - | - | - |
| 1777719784 | 10.56° C | 66% | 964.6 hPa | - | - | - | - |
| 1777719454 | 10.56° C | 65% | 964.6 hPa | - | - | - | - |
| 1777719154 | 11.11° C | 64% | 964.7 hPa | - | - | - | - |
| 1777718824 | 11.11° C | 64% | 964.7 hPa | - | - | - | - |
| 1777718524 | 11.11° C | 63% | 964.7 hPa | - | - | - | - |
| 1777718224 | 11.11° C | 62% | 964.8 hPa | - | - | - | - |
| 1777717924 | 11.67° C | 64% | 964.6 hPa | - | - | - | - |
| 1777717594 | 11.67° C | 62% | 964.6 hPa | - | - | - | - |
| 1777717294 | 11.67° C | 62% | 964.7 hPa | - | - | - | - |
| 1777716994 | 11.67° C | 62% | 964.8 hPa | - | - | - | - |
| 1777716664 | 11.67° C | 61% | 964.6 hPa | - | - | - | - |
| 1777716364 | 12.22° C | 60% | 964.8 hPa | - | - | - | - |
| 1777716034 | 12.22° C | 61% | 964.8 hPa | - | - | - | - |
| 1777715734 | 12.22° C | 60% | 964.7 hPa | - | - | - | - |
| 1777715404 | 12.78° C | 60% | 964.7 hPa | - | - | - | - |
| 1777715104 | 13.33° C | 60% | 964.5 hPa | - | - | - | - |
| 1777714774 | 13.33° C | 60% | 964.6 hPa | - | - | - | - |
| 1777714474 | 12.78° C | 61% | 964.7 hPa | - | - | - | - |
| 1777714174 | 12.78° C | 61% | 964.7 hPa | - | - | - | - |
| 1777713874 | 12.78° C | 62% | 964.6 hPa | - | - | - | - |
| 1777713573 | 12.78° C | 60% | 964.7 hPa | - | - | - | - |
* Rain since midnight (hover to see other rain measurements)
** Current wind speed in m/s (hover to see current wind gust speed)